Location: Oroua River
(40.4333°S, 175.4333°E)
Time: 13:42:44
(UTC+00:00)

Meteor 1-22 Rocket - Pass Details

Date: 03 February 2023
Orbit: 788 x 939 km, 81.2° (Epoch: 22 March)

Event Time Altitude Azimuth Distance (km) Brightness Sun altitude
Rises 14:21:06 0° 188° (S) 3,418 8.1 -27.7°
Reaches altitude 10° 14:23:35 10° 185° (S) 2,456 7.3 -27.5°
Maximum altitude 14:29:06 69° 101° (ESE) 873 4.3 -26.9°
Enters shadow 14:29:58 58° 50° (NE) 940 4.3 -26.8°
